Time,TemperatureF,DewpointF,PressureIn,WindDirection,WindDirectionDegrees,WindSpeedMPH,WindSpeedGustMPH,Humidity,HourlyPrecipIn,Conditions,Clouds,dailyrainin,SoftwareType,DateUTC
2013-01-27 00:02:00,36.1,30.9,29.75,SSW,207,11.0,25.0,81,0.00,,,0.00,meteohub,2013-01-27 07:02:00,
2013-01-27 00:13:00,36.1,30.6,29.75,WSW,239,11.0,21.0,80,0.00,,,0.00,meteohub,2013-01-27 07:13:00,
2013-01-27 00:22:00,36.3,30.7,29.74,SSW,204,10.0,21.0,80,0.00,,,0.00,meteohub,2013-01-27 07:22:00,
2013-01-27 00:32:00,36.1,30.6,29.74,SSW,194,16.0,21.0,80,0.00,,,0.00,meteohub,2013-01-27 07:32:00,
2013-01-27 00:42:00,36.1,30.6,29.73,South,185,24.0,24.0,80,0.00,,,0.00,meteohub,2013-01-27 07:42:00,
2013-01-27 00:52:00,36.1,30.2,29.73,SW,225,13.0,27.0,79,0.00,,,0.00,meteohub,2013-01-27 07:52:00,
2013-01-27 01:02:00,35.4,30.2,29.73,SW,230,17.0,26.0,81,0.00,,,0.00,meteohub,2013-01-27 08:02:00,
2013-01-27 01:12:00,35.1,30.4,29.73,SSW,210,17.0,24.0,83,0.00,,,0.00,meteohub,2013-01-27 08:12:00,
2013-01-27 01:22:00,35.2,30.4,29.74,SW,215,11.0,27.0,82,0.00,,,0.00,meteohub,2013-01-27 08:22:00,
2013-01-27 01:32:00,34.9,30.6,29.74,South,179,11.0,22.0,84,0.00,,,0.00,meteohub,2013-01-27 08:32:00,
2013-01-27 01:42:00,34.9,30.2,29.74,SSW,200,14.0,25.0,83,0.00,,,0.00,meteohub,2013-01-27 08:42:00,
2013-01-27 01:52:00,35.1,30.4,29.74,SSW,213,11.0,20.0,83,0.00,,,0.00,meteohub,2013-01-27 08:52:00,
2013-01-27 02:02:00,35.4,30.2,29.75,WSW,253,11.0,21.0,81,0.00,,,0.00,meteohub,2013-01-27 09:02:00,
2013-01-27 02:12:00,36.1,30.2,29.74,SW,232,12.0,21.0,79,0.00,,,0.00,meteohub,2013-01-27 09:12:00,
2013-01-27 02:22:00,36.1,30.0,29.74,SSW,195,12.0,20.0,78,0.00,,,0.00,meteohub,2013-01-27 09:22:00,
2013-01-27 02:32:00,35.6,30.0,29.74,SSW,208,10.0,21.0,80,0.00,,,0.00,meteohub,2013-01-27 09:32:00,
2013-01-27 02:42:00,35.6,30.0,29.74,SW,216,9.0,22.0,80,0.00,,,0.00,meteohub,2013-01-27 09:42:00,
2013-01-27 02:52:00,36.0,29.8,29.75,SW,219,10.0,24.0,78,0.00,,,0.00,meteohub,2013-01-27 09:52:00,
2013-01-27 03:02:00,36.1,29.7,29.75,SW,215,10.0,24.0,77,0.00,,,0.00,meteohub,2013-01-27 10:02:00,
2013-01-27 03:12:00,36.0,30.0,29.75,SSW,205,9.0,19.0,79,0.00,,,0.00,meteohub,2013-01-27 10:12:00,
2013-01-27 03:22:00,36.1,30.0,29.75,SSW,202,9.0,20.0,78,0.00,,,0.00,meteohub,2013-01-27 10:22:00,
2013-01-27 03:32:00,35.6,30.0,29.75,SW,220,12.0,20.0,80,0.00,,,0.00,meteohub,2013-01-27 10:32:00,
2013-01-27 03:42:00,35.4,29.8,29.75,SSW,204,10.0,21.0,80,0.00,,,0.00,meteohub,2013-01-27 10:42:00,
2013-01-27 03:52:00,36.0,29.8,29.75,South,176,18.0,22.0,78,0.00,,,0.00,meteohub,2013-01-27 10:52:00,
2013-01-27 04:02:00,36.7,29.5,29.75,South,182,12.0,22.0,75,0.00,,,0.00,meteohub,2013-01-27 11:02:00,
2013-01-27 04:12:00,36.1,29.7,29.75,South,183,9.0,19.0,77,0.00,,,0.00,meteohub,2013-01-27 11:12:00,
2013-01-27 04:22:00,36.0,29.5,29.75,SSW,193,19.0,22.0,77,0.00,,,0.00,meteohub,2013-01-27 11:22:00,
2013-01-27 04:32:00,36.0,29.8,29.75,SSW,201,19.0,25.0,78,0.00,,,0.00,meteohub,2013-01-27 11:32:00,
2013-01-27 04:42:00,35.4,29.5,29.75,South,175,15.0,22.0,79,0.00,,,0.00,meteohub,2013-01-27 11:42:00,
2013-01-27 04:52:00,35.2,29.3,29.75,SSE,166,11.0,26.0,79,0.00,,,0.00,meteohub,2013-01-27 11:52:00,
2013-01-27 05:02:00,35.4,29.3,29.75,South,181,17.0,22.0,78,0.00,,,0.00,meteohub,2013-01-27 12:02:00,
2013-01-27 05:12:00,35.6,29.5,29.75,SSE,167,14.0,24.0,78,0.00,,,0.00,meteohub,2013-01-27 12:12:00,
2013-01-27 05:22:00,35.4,29.5,29.75,South,181,16.0,22.0,79,0.00,,,0.00,meteohub,2013-01-27 12:22:00,
2013-01-27 05:32:00,35.2,29.1,29.76,South,178,8.0,24.0,78,0.00,,,0.00,meteohub,2013-01-27 12:32:00,
2013-01-27 05:42:00,37.2,29.1,29.76,SW,214,12.0,24.0,72,0.00,,,0.00,meteohub,2013-01-27 12:42:00,
2013-01-27 05:52:00,37.0,28.6,29.77,SSW,198,10.0,18.0,71,0.00,,,0.00,meteohub,2013-01-27 12:52:00,
2013-01-27 06:02:00,36.3,28.6,29.77,SSW,210,14.0,22.0,73,0.00,,,0.00,meteohub,2013-01-27 13:02:00,
2013-01-27 06:12:00,38.5,28.8,29.78,SW,228,13.0,22.0,68,0.00,,,0.00,meteohub,2013-01-27 13:12:00,
2013-01-27 06:22:00,38.5,28.8,29.77,WSW,253,13.0,20.0,68,0.00,,,0.00,meteohub,2013-01-27 13:22:00,
2013-01-27 06:32:00,37.9,28.8,29.78,SW,219,12.0,20.0,69,0.00,,,0.00,meteohub,2013-01-27 13:32:00,
2013-01-27 06:42:00,38.7,28.2,29.78,WSW,244,19.0,19.0,66,0.00,,,0.00,meteohub,2013-01-27 13:42:00,
2013-01-27 06:52:00,39.0,27.9,29.78,SW,220,7.0,24.0,64,0.00,,,0.00,meteohub,2013-01-27 13:52:00,
2013-01-27 07:02:00,38.8,27.7,29.77,WSW,241,9.0,24.0,64,0.00,,,0.00,meteohub,2013-01-27 14:02:00,
2013-01-27 07:12:00,39.0,27.5,29.77,SW,224,9.0,22.0,63,0.00,,,0.00,meteohub,2013-01-27 14:12:00,
2013-01-27 07:22:00,38.8,27.0,29.77,WSW,241,17.0,22.0,62,0.00,,,0.00,meteohub,2013-01-27 14:22:00,
2013-01-27 07:32:00,39.0,27.1,29.77,SW,230,8.0,21.0,62,0.00,,,0.00,meteohub,2013-01-27 14:32:00,
2013-01-27 07:42:00,39.0,27.1,29.78,SW,220,13.0,21.0,62,0.00,,,0.00,meteohub,2013-01-27 14:42:00,
2013-01-27 07:52:00,39.7,27.3,29.78,SW,216,16.0,21.0,61,0.00,,,0.00,meteohub,2013-01-27 14:52:00,
2013-01-27 08:02:00,39.9,27.5,29.77,SW,236,11.0,21.0,61,0.00,,,0.00,meteohub,2013-01-27 15:02:00,
2013-01-27 08:12:00,40.3,27.9,29.78,WSW,241,14.0,24.0,61,0.00,,,0.00,meteohub,2013-01-27 15:12:00,
2013-01-27 08:22:00,40.6,27.5,29.78,SW,220,9.0,24.0,59,0.00,,,0.00,meteohub,2013-01-27 15:22:00,
2013-01-27 08:32:00,40.8,27.1,29.78,SSW,207,11.0,25.0,58,0.00,,,0.00,meteohub,2013-01-27 15:32:00,
2013-01-27 08:42:00,40.6,27.9,29.78,SW,229,13.0,25.0,60,0.00,,,0.00,meteohub,2013-01-27 15:42:00,
2013-01-27 08:52:00,40.8,27.7,29.79,SSE,163,16.0,25.0,59,0.00,,,0.00,meteohub,2013-01-27 15:52:00,
2013-01-27 09:02:00,41.5,27.5,29.79,SW,227,12.0,25.0,57,0.00,,,0.00,meteohub,2013-01-27 16:02:00,
2013-01-27 09:12:00,41.4,27.3,29.79,SW,214,15.0,24.0,57,0.00,,,0.00,meteohub,2013-01-27 16:12:00,
2013-01-27 09:22:00,41.7,27.1,29.79,WSW,242,14.0,22.0,56,0.00,,,0.00,meteohub,2013-01-27 16:22:00,
2013-01-27 09:32:00,42.1,27.1,29.80,SW,215,13.0,22.0,55,0.00,,,0.00,meteohub,2013-01-27 16:32:00,
2013-01-27 09:42:00,40.6,26.6,29.80,SW,222,11.0,20.0,57,0.00,,,0.00,meteohub,2013-01-27 16:42:00,
2013-01-27 09:52:00,40.3,26.2,29.81,SW,230,12.0,23.0,57,0.00,,,0.00,meteohub,2013-01-27 16:52:00,
2013-01-27 10:02:00,40.6,26.2,29.81,SW,226,19.0,33.0,56,0.00,,,0.00,meteohub,2013-01-27 17:02:00,
2013-01-27 10:12:00,41.5,26.1,29.81,SSW,212,8.0,33.0,54,0.00,,,0.00,meteohub,2013-01-27 17:12:00,
2013-01-27 10:22:00,42.4,25.5,29.82,SW,230,19.0,31.0,51,0.00,,,0.00,meteohub,2013-01-27 17:22:00,
2013-01-27 10:32:00,41.7,25.3,29.82,SW,217,12.0,29.0,52,0.00,,,0.00,meteohub,2013-01-27 17:32:00,
2013-01-27 10:42:00,42.1,25.3,29.83,SW,230,9.0,27.0,51,0.00,,,0.00,meteohub,2013-01-27 17:42:00,
2013-01-27 10:52:00,41.7,25.3,29.83,SW,235,12.0,27.0,52,0.00,,,0.00,meteohub,2013-01-27 17:52:00,
2013-01-27 11:02:00,42.4,25.5,29.83,SW,230,23.0,28.0,51,0.00,,,0.00,meteohub,2013-01-27 18:02:00,
2013-01-27 11:12:00,43.2,25.3,29.82,WSW,247,14.0,28.0,49,0.00,,,0.00,meteohub,2013-01-27 18:12:00,
2013-01-27 11:22:00,43.2,24.8,29.82,SW,224,16.0,23.0,48,0.00,,,0.00,meteohub,2013-01-27 18:22:00,
2013-01-27 11:32:00,44.1,25.7,29.81,SW,222,16.0,29.0,48,0.00,,,0.00,meteohub,2013-01-27 18:32:00,
2013-01-27 11:42:00,43.0,24.6,29.81,SW,235,20.0,28.0,48,0.00,,,0.00,meteohub,2013-01-27 18:42:00,
2013-01-27 11:52:00,43.3,24.4,29.82,SW,222,11.0,27.0,47,0.00,,,0.00,meteohub,2013-01-27 18:52:00,
2013-01-27 12:02:00,44.1,25.7,29.82,SSW,205,19.0,22.0,48,0.00,,,0.00,meteohub,2013-01-27 19:02:00,
2013-01-27 12:12:00,44.4,25.5,29.81,SSW,203,7.0,25.0,47,0.00,,,0.00,meteohub,2013-01-27 19:12:00,
2013-01-27 12:22:00,44.4,25.0,29.81,SW,235,9.0,22.0,46,0.00,,,0.00,meteohub,2013-01-27 19:22:00,
2013-01-27 12:32:00,44.1,25.2,29.81,WSW,243,9.0,24.0,47,0.00,,,0.00,meteohub,2013-01-27 19:32:00,
2013-01-27 12:42:00,44.4,25.5,29.80,WSW,239,18.0,22.0,47,0.00,,,0.00,meteohub,2013-01-27 19:42:00,
2013-01-27 12:52:00,45.3,25.2,29.80,WSW,248,12.0,25.0,45,0.00,,,0.00,meteohub,2013-01-27 19:52:00,
2013-01-27 13:02:00,45.5,24.8,29.80,SW,226,14.0,22.0,44,0.00,,,0.00,meteohub,2013-01-27 20:02:00,
2013-01-27 13:12:00,45.3,25.7,29.79,WSW,243,8.0,24.0,46,0.00,,,0.00,meteohub,2013-01-27 20:12:00,
2013-01-27 13:22:00,45.3,25.2,29.79,SW,218,12.0,24.0,45,0.00,,,0.00,meteohub,2013-01-27 20:22:00,
2013-01-27 13:32:00,45.1,25.5,29.79,WSW,238,7.0,24.0,46,0.00,,,0.00,meteohub,2013-01-27 20:32:00,
2013-01-27 13:42:00,46.0,25.9,29.79,SW,220,18.0,23.0,45,0.00,,,0.00,meteohub,2013-01-27 20:42:00,
2013-01-27 13:52:00,45.3,25.2,29.78,WSW,243,11.0,20.0,45,0.00,,,0.00,meteohub,2013-01-27 20:52:00,
2013-01-27 14:02:00,45.7,25.0,29.78,SSW,212,11.0,21.0,44,0.00,,,0.00,meteohub,2013-01-27 21:02:00,
2013-01-27 14:12:00,45.7,25.0,29.79,SW,216,18.0,20.0,44,0.00,,,0.00,meteohub,2013-01-27 21:12:00,
2013-01-27 14:22:00,45.1,25.0,29.79,SW,228,14.0,21.0,45,0.00,,,0.00,meteohub,2013-01-27 21:22:00,
2013-01-27 14:32:00,45.1,25.0,29.79,SW,234,7.0,21.0,45,0.00,,,0.00,meteohub,2013-01-27 21:32:00,
2013-01-27 14:42:00,45.7,25.5,29.79,SSW,201,11.0,20.0,45,0.00,,,0.00,meteohub,2013-01-27 21:42:00,
2013-01-27 14:52:00,45.5,25.3,29.79,SSW,212,14.0,20.0,45,0.00,,,0.00,meteohub,2013-01-27 21:52:00,
2013-01-27 15:02:00,45.1,25.0,29.79,SW,232,9.0,20.0,45,0.00,,,0.00,meteohub,2013-01-27 22:02:00,
2013-01-27 15:12:00,45.0,24.4,29.78,WSW,238,8.0,18.0,44,0.00,,,0.00,meteohub,2013-01-27 22:12:00,
2013-01-27 15:22:00,44.8,28.8,29.79,South,191,11.0,18.0,53,0.00,,,0.00,meteohub,2013-01-27 22:22:00,
2013-01-27 15:32:00,43.9,29.1,29.78,South,181,13.0,14.0,56,0.00,,,0.00,meteohub,2013-01-27 22:32:00,
2013-01-27 15:42:00,42.8,29.5,29.78,SSE,168,12.0,16.0,59,0.00,,,0.00,meteohub,2013-01-27 22:42:00,
2013-01-27 15:52:00,41.5,29.5,29.79,South,184,7.0,17.0,62,0.00,,,0.00,meteohub,2013-01-27 22:52:00,
2013-01-27 16:02:00,41.4,29.7,29.79,South,189,10.0,17.0,63,0.00,,,0.00,meteohub,2013-01-27 23:02:00,
2013-01-27 16:12:00,40.5,29.7,29.78,SSW,197,7.0,17.0,65,0.00,,,0.00,meteohub,2013-01-27 23:12:00,
2013-01-27 16:22:00,39.7,29.3,29.78,South,184,9.0,16.0,66,0.00,,,0.00,meteohub,2013-01-27 23:22:00,
2013-01-27 16:32:00,39.0,28.9,29.78,South,185,8.0,15.0,67,0.00,,,0.00,meteohub,2013-01-27 23:32:00,
2013-01-27 16:42:00,37.9,28.8,29.78,SSW,207,7.0,14.0,69,0.00,,,0.00,meteohub,2013-01-27 23:42:00,
2013-01-27 16:52:00,37.8,28.6,29.78,WSW,239,8.0,14.0,69,0.00,,,0.00,meteohub,2013-01-27 23:52:00,
2013-01-27 17:02:00,37.8,28.6,29.79,SSW,213,4.0,17.0,69,0.00,,,0.00,meteohub,2013-01-28 00:02:00,
2013-01-27 17:12:00,37.6,28.4,29.79,SSW,208,9.0,17.0,69,0.00,,,0.00,meteohub,2013-01-28 00:12:00,
2013-01-27 17:22:00,37.4,28.2,29.78,SSW,199,5.0,13.0,69,0.00,,,0.00,meteohub,2013-01-28 00:22:00,
2013-01-27 17:32:00,37.4,28.2,29.78,SW,217,10.0,13.0,69,0.00,,,0.00,meteohub,2013-01-28 00:32:00,
2013-01-27 17:42:00,37.4,28.2,29.78,SSW,202,10.0,15.0,69,0.00,,,0.00,meteohub,2013-01-28 00:42:00,
2013-01-27 17:52:00,37.4,28.2,29.78,SW,224,8.0,16.0,69,0.00,,,0.00,meteohub,2013-01-28 00:52:00,
2013-01-27 18:02:00,37.0,27.9,29.79,SSW,209,7.0,17.0,69,0.00,,,0.00,meteohub,2013-01-28 01:02:00,
2013-01-27 18:12:00,37.0,28.2,29.79,SSW,206,7.0,14.0,70,0.00,,,0.00,meteohub,2013-01-28 01:12:00,
2013-01-27 18:22:00,36.9,28.4,29.79,SSW,206,8.0,17.0,71,0.00,,,0.00,meteohub,2013-01-28 01:22:00,
2013-01-27 18:32:00,36.7,28.2,29.79,SSW,209,10.0,17.0,71,0.00,,,0.00,meteohub,2013-01-28 01:32:00,
2013-01-27 18:42:00,36.3,28.2,29.80,SSW,202,4.0,18.0,72,0.00,,,0.00,meteohub,2013-01-28 01:42:00,
2013-01-27 18:52:00,36.1,28.0,29.80,SSW,204,7.0,16.0,72,0.00,,,0.00,meteohub,2013-01-28 01:52:00,
2013-01-27 19:02:00,36.0,27.5,29.81,SSW,193,9.0,17.0,71,0.00,,,0.00,meteohub,2013-01-28 02:02:00,
2013-01-27 19:12:00,35.8,27.3,29.80,SSW,199,8.0,17.0,71,0.00,,,0.00,meteohub,2013-01-28 02:12:00,
2013-01-27 19:22:00,35.4,26.2,29.80,SSW,194,11.0,15.0,69,0.00,,,0.00,meteohub,2013-01-28 02:22:00,
2013-01-27 19:32:00,34.9,25.7,29.81,SSW,203,6.0,15.0,69,0.00,,,0.00,meteohub,2013-01-28 02:32:00,
2013-01-27 19:42:00,34.3,24.4,29.80,SSW,199,9.0,16.0,67,0.00,,,0.00,meteohub,2013-01-28 02:42:00,
2013-01-27 19:52:00,33.8,23.7,29.81,SSW,194,7.0,16.0,66,0.00,,,0.00,meteohub,2013-01-28 02:52:00,
2013-01-27 20:02:00,33.4,23.4,29.81,SSW,201,13.0,17.0,66,0.00,,,0.00,meteohub,2013-01-28 03:02:00,
2013-01-27 20:12:00,33.3,23.2,29.80,South,184,14.0,16.0,66,0.00,,,0.00,meteohub,2013-01-28 03:12:00,
2013-01-27 20:22:00,33.3,22.8,29.81,South,189,12.0,21.0,65,0.00,,,0.00,meteohub,2013-01-28 03:22:00,
2013-01-27 20:32:00,33.1,22.6,29.81,South,185,12.0,21.0,65,0.00,,,0.00,meteohub,2013-01-28 03:32:00,
2013-01-27 20:42:00,32.9,22.1,29.82,South,190,10.0,18.0,64,0.00,,,0.00,meteohub,2013-01-28 03:42:00,
2013-01-27 20:52:00,32.7,21.9,29.82,SSW,193,10.0,18.0,64,0.00,,,0.00,meteohub,2013-01-28 03:52:00,
2013-01-27 21:02:00,32.5,21.7,29.82,SSW,205,13.0,13.0,64,0.00,,,0.00,meteohub,2013-01-28 04:02:00,
2013-01-27 21:12:00,32.4,21.9,29.81,South,183,7.0,14.0,65,0.00,,,0.00,meteohub,2013-01-28 04:12:00,
2013-01-27 21:22:00,32.0,21.6,29.81,SSW,193,12.0,14.0,65,0.00,,,0.00,meteohub,2013-01-28 04:22:00,
2013-01-27 21:32:00,31.5,21.4,29.81,SSW,210,7.0,14.0,66,0.00,,,0.00,meteohub,2013-01-28 04:32:00,
2013-01-27 21:42:00,31.6,21.2,29.81,SSW,204,12.0,16.0,65,0.00,,,0.00,meteohub,2013-01-28 04:42:00,
2013-01-27 21:52:00,31.3,20.8,29.80,SSW,198,9.0,15.0,65,0.00,,,0.00,meteohub,2013-01-28 04:52:00,
2013-01-27 22:02:00,30.9,20.8,29.80,SSW,192,7.0,13.0,66,0.00,,,0.00,meteohub,2013-01-28 05:02:00,
2013-01-27 22:12:00,30.4,20.7,29.80,South,191,5.0,11.0,67,0.00,,,0.00,meteohub,2013-01-28 05:12:00,
2013-01-27 22:22:00,30.2,20.3,29.79,South,190,5.0,9.0,66,0.00,,,0.00,meteohub,2013-01-28 05:22:00,
2013-01-27 22:32:00,30.0,20.1,29.80,South,185,9.0,9.0,66,0.00,,,0.00,meteohub,2013-01-28 05:32:00,
2013-01-27 22:42:00,31.1,20.3,29.80,South,179,12.0,16.0,64,0.00,,,0.00,meteohub,2013-01-28 05:42:00,
2013-01-27 22:52:00,31.1,20.3,29.79,South,188,13.0,16.0,64,0.00,,,0.00,meteohub,2013-01-28 05:52:00,
2013-01-27 23:02:00,31.3,20.1,29.80,SSW,205,13.0,18.0,63,0.00,,,0.00,meteohub,2013-01-28 06:02:00,
2013-01-27 23:12:00,31.1,19.9,29.79,SSW,206,6.0,17.0,63,0.00,,,0.00,meteohub,2013-01-28 06:12:00,
2013-01-27 23:22:00,30.9,20.1,29.79,SSW,196,9.0,15.0,64,0.00,,,0.00,meteohub,2013-01-28 06:22:00,
2013-01-27 23:32:00,30.9,20.5,29.79,South,180,12.0,16.0,65,0.00,,,0.00,meteohub,2013-01-28 06:32:00,
2013-01-27 23:42:00,31.3,20.8,29.79,SSW,203,6.0,18.0,65,0.00,,,0.00,meteohub,2013-01-28 06:42:00,
2013-01-27 23:52:00,31.5,20.7,29.79,SSW,199,6.0,17.0,64,0.00,,,0.00,meteohub,2013-01-28 06:52:00,